Tracking 29892 objects as of 21-Nov-2024
HD Live streaming from Space Station
objects crossing your sky now

TDRS 7

Track TDRS 7 now!
TDRS 7 is classified as:


NORAD ID: 23613
Int'l Code: 1995-035B
Perigee: 35,702.0 km
Apogee: 35,887.6 km
Inclination: 13.6 °
Period: 1,436.1 minutes
Semi major axis: 42165 km
RCS: 19.9526 m2 (large)
Launch date: July 13, 1995
Source: United States (US)
Launch site: AIR FORCE EASTERN TEST RANGE (AFETR)

Tracking and communications with space shuttle, other missions.
Your satellite tracking list
Your tracking list is empty




NASA's NSSDC Master Catalog

Two Line Element Set (TLE):
1 23613U 95035B   24325.81874328 -.00000204  00000-0  00000-0 0  9991
2 23613  13.6169 352.1342 0022008  74.1627  13.5948  1.00268105107508
Source of the keplerian elements: AFSPC